OPS 4682 DEB, 39609

Orbit data source: Space-Track

OPS 4682 DEB, 39609 is space debris in LEO originally from a launch on Sat, 03 Apr 1965 UTC launched from the Air Force Western Test Range (AFWTR). Debris objects in space refer to the collection of defunct objects orbiting the Earth. Examples of debris include non-operational satellites, rocket bodies, and fragments generated from explosions, collisions, or faulty payload assembly.

Loading next visibility...
Identifier
39609, 1965-027FS
Orbit
LEO
Country
Flag of USUS
Related business
Manufacturer
Unknown
Mission
Spacecraft
Bus & Motor
Unknown
Mass
Unknown
Launch date (UTC)
1965-04-03 (61 years ago)
Launch vehicle
Unknown
Launch site
Air Force Western Test Range (AFWTR)
Object type
Payload
Rocket body
Debris
Shape & HBR
Unknown shape, 0.1 m
Radar Cross Section
Medium (>0.1 m² and <1 m²)

Expand to show TLE details & history
Last TLE update: 3 days ago

TLE from 3 days ago
0 OPS 4682 DEB
1 39609U 65027FS  26251.81842993  .00000394  00000-0  13153-2 0  9998
2 39609  90.2589  16.4486 0028569 189.0291 324.9673 12.98200595607155
Epoch: 2026-09-08T19:38Z
TLE epoch observation values (Epoch: 2026-09-08T19:38:32.345Z)
Latitude
26.22254°
Longitude
-85.93868°
Altitude
1,254.458 km
Speed
7.239 km/s
True Right ascension
13h 06m 18s
True Declination
26° 05' 43"
Sunlit
Object was in daylight at epoch
Visualization orbit readout
Latitude
Unknown
Longitude
Unknown
Altitude
Unknown
Speed
Unknown
Apparent Right ascension
Unknown
Apparent Declination
Unknown
Sunlit
N/A
Visualization observer readout
Local Sidereal Time
15:38:33
Azimuth
Unknown
Elevation
Unknown
Doppler factor
Unknown
Orbital elements
Apogee altitude
1,288.114 km
Perigee altitude
1,244.435 km
Semi-major axis
7,644.412 km
Eccentricity
0.00286
Inclination
90.2589°
RAAN
16.4486°
Arg. of periapsis
189.0291°
True anomaly
324.77882°
Mean anomaly
324.9673°
Eccentric anomaly
324.87312°
Mean motion
3.24733 °/min
Orbital period
110.86 mins
BSTAR
0.0013153
Loading maneuver chart data...
Computing Atmospheric mass density...
Loading historical data...
Loading historical data...
Loading historical data...
Loading historical data...
Loading historical data...
Loading historical data...
Loading historical data...

Documentation

Showing up to 5 results
|